Regional Weather Roundup
Issued by NWS Wakefield, VA

Home | Current Version | Previous Version | Text Only | Print | Product List | Glossary On
Versions: 1 2 3 4 5 6 7 8 9 10 11 12 13 14 15 16 17 18 19 20 21 22 23 24 25 26 27 28 29 30 31 32 33 34 35 36 37 38 39 40 41 42 43 44 45 46 47 48 49 50
000
ASUS41 KAKQ 240810
RWRAKQ

REGIONAL WEATHER ROUNDUP
NATIONAL WEATHER SERVICE WAKEFIELD VA
300 AM EST MON NOV 24 2014

Note: "fair" indicates few or no clouds below 12,000 feet with no
significant weather and/or obstructions to visibility. * = Denotes
station may not report precipitation (e.g., rain,snow,etc.),
thunder or fog.

VAZ042-051-052>054-056-240900-
NORTHERN VIRGINIA

CITY           SKY/WX    TMP DP  RH WIND       PRES   REMARKS
WASH NATIONAL  LGT RAIN  64  59  83 S15G26    29.67S
DULLES         LGT RAIN  60  59  96 S10G17    29.64F
FORT BELVOIR   DRIZZLE   62  60  92 S6        29.67S
QUANTICO       CLOUDY    56  54  93 S13       29.68S
FREDERICKSBRG* CLOUDY    66  64  94 S15G24    29.66S
STAFFORD*      CLOUDY    64  64 100 S9        29.71S
WARRENTON      LGT RAIN  64  64 100 S8G16     29.64F
CULPEPER*      RAIN      63  61  94 W7        29.66R
MANASSAS*      CLOUDY    63  63 100 S15G22    29.64F
LEESBURG*      LGT RAIN  61  61 100 MISG      29.64F
WINCHESTER     MOCLDY    54  50  87 SE6       29.60F
FRONT ROYAL*   CLOUDY    54  54 100 SE3       29.61F
LURAY*         CLOUDY    57  57 100 SW5       29.62S
$$

VAZ048-049-060>072-079>083-240900-
CENTRAL AND SOUTH CENTRAL VIRGINIA

CITY           SKY/WX    TMP DP  RH WIND       PRES   REMARKS
RICHMOND       CLOUDY    66  63  90 S22G30    29.72R
CHESTERFIELD*  CLOUDY    64  55  72 S16G24    29.73R
PETERSBURG*    CLOUDY    67  65  93 S7G17     29.74R
HANOVER        MOCLDY    65  63  93 S15G28    29.71S
TAPPAHANNOCK*  CLOUDY    65  61  85 SE15G24   29.71S
QUINTON*       CLOUDY    65  63  94 S14G30    29.71F
CHARLOTTSVILLE CLOUDY    52  51  97 SW5       29.65F
GORDONSVILLE*  CLOUDY    58  58  97 W3        29.65S
ORANGE*        CLOUDY    63  61  94 S7        29.67R
LOUISA*        CLOUDY    64  61  88 SW8G16    29.66R
BUMPASS*       CLOUDY    64  61  89 SW8G16    29.69R
FARMVILLE*     MOCLDY    65  65 100 S14       29.68R
CREWE*         PTSUNNY   64  61  89 S9G18     29.72R
FORT PICKETT*  CLOUDY    64  62  95 S14G20    29.73R
CHASE CITY*    CLOUDY    65  64  99 S6        29.74R
CLARKSVILLE*   CLOUDY    63  61  94 S8G18     29.74R
SOUTH HILL*    CLOUDY    63  62  95 S13       29.80R
LAWRENCEVILLE* CLOUDY    64  63  97 S12G20    29.75R
$$

VAZ088>098-240900-
SOUTHEAST VIRGINIA

CITY           SKY/WX    TMP DP  RH WIND       PRES   REMARKS
NORFOLK        CLOUDY    67  64  90 S24G35    29.78F
VIRGINIA BEACH CLOUDY    68  64  87 S13G29    29.79R
NORFOLK NAVAL  CLOUDY    69  64  84 S12G22    29.81R
WEST POINT*    CLOUDY    65  62  90 SE15G22   29.75S
SALUDA*        CLOUDY    63  61  95 S18G25    29.74F
NEWPORT NEWS   LGT RAIN  67  63  87 S14       29.78S
LANGLEY AFB    CLOUDY    66 N/A N/A S18G25    29.79S
FORT EUSTIS    CLOUDY    64 N/A N/A S13       29.76S
WILLIAMSBURG*  CLOUDY    66  64  94 S17G23    29.77F
HR EXEC AP*    CLOUDY    66  64  94 S16G30    29.81S
FRANKLIN*      CLOUDY    66  66 100 S15G22    29.77F
WAKEFIELD      CLOUDY    67  64  90 S12G24    29.76S
$$

VAZ020-022-025-037-045-240900-
WEST CENTRAL AND SOUTHWEST VIRGINIA

CITY           SKY/WX    TMP DP  RH WIND       PRES   REMARKS
STAUNTON*      MOCLDY    55  52  90 SW5       29.66R
WAYNESBORO*    PTSUNNY   58  55  87 S8G16     29.65R
HOT SPRINGS VA FOG       50  50 100 S10G20    29.66R VSB 1/2
LYNCHBURG      CLOUDY    54  54 100 VRB5      29.71R
DANVILLE       PTCLDY    63  58  83 SW10      29.72R
SOUTH BOSTON*  PTSUNNY   63  60  92 S7        29.73R
MARTINSVILLE   CLOUDY    48  48 100 CALM      29.74R
ROANOKE        CLOUDY    51  50  96 NE7       29.69R
BLACKSBURG     MOCLDY    55  54  94 CALM      29.69R
DUBLIN*        PTCLDY    54  53  94 S6        29.67S
MARION*        CLOUDY    58  49  72 W5        29.68R
HILLSVILLE*    CLEAR     52  50  94 S7        29.69R
RICHLANDS*     CLOUDY    61  50  67 SW13G22   29.63S
WISE*          CLOUDY    57  50  77 SW16G24   29.63R
ABINGDON*      CLOUDY    59  51  73 W7        29.64R
$$

MDZ021>025-VAZ099-100-240900-
SOUTHERN MARYLAND AND THE DELMARVA PENINSULA

CITY           SKY/WX    TMP DP  RH WIND       PRES   REMARKS
PATUXENT RIVER CLOUDY    63  62  97 S18G35    29.70F
BAY BRIDGE APT   N/A     61  61 100 S20G31    29.68F
LEONARDTOWN    CLOUDY    61  59  94 S16G24    29.71F
DOVER          LGT RAIN  63  63 100 SE23G38   29.69F
GEORGETOWN     LGT RAIN  64  61  90 S21G35    29.78F
EASTON         CLOUDY    66  66 100 S24G38    29.74S
CAMBRIDGE      CLOUDY    63  59  88 S20G36    29.70F
SALISBURY      HVY RAIN  66  62  87 S20G33    29.79S FOG
OCEAN CITY     RAIN      58  57  97 S10G17    29.81F FOG
WALLOPS ISLAND HVY RAIN  60  59  96 S16G32    29.80F FOG
ACCOMACK*      HVY RAIN  61  59  94 S17G26    29.79F
$$

NCZ012>017-030>032-240900-
NORTH CENTRAL AND EASTERN NORTH CAROLINA

CITY           SKY/WX    TMP DP  RH WIND       PRES   REMARKS
ROANOKE RAPIDS CLOUDY    66  64  94 S10G16    29.77S
RALEIGH        MOCLDY    65  60  84 S14G22    29.78R
ELIZABETH CITY CLOUDY    70  64  83 S12G18    29.82F
AHOSKIE*       CLOUDY    66  64  93 S16G22    29.78F
EDENTON*       CLOUDY    65  64  99 S23G30    29.81F
CURRITUCK*     RAIN      66  64  92 S9G18     29.82F
KILL DEVIL HLS LGT RAIN  64  64  97 S14G29    29.82S
MANTEO         LGT RAIN  61  61  99 S25G33    29.83F
CAPE HATTERAS  LGT RAIN  68  67  96 S29G41    29.84F FOG
TARBORO*       CLOUDY    68  65  90 S9        29.80S
GOLDSBORO      MOCLDY    67  67 100 S2        29.78S
WASHINGTON     CLOUDY    68  66  93 S9G18     29.82S
GREENVILLE     CLOUDY    70  68  94 S15G21    29.83S
NEW BERN       LGT RAIN  71  67  87 S10       29.85R
WILMINGTON     CLOUDY    68  67  96 S8        29.84S FOG
$$

VAZ048-240900-
ELSEWHERE

CITY           SKY/WX    TMP DP  RH WIND       PRES   REMARKS
HARRISBURG PA  LGT RAIN  56  54  93 SE14      29.63F
BALTIMORE      DRIZZLE   60  59  96 S16G23    29.67F
ANNAPOLIS      CLOUDY    57  56  96 S25G38    29.69F FOG
ANDREWS AFB    CLOUDY    63  63  99 S21G35    29.66S
PHILADELPHIA   RAIN      63  59  87 S24G33    29.72F FOG
WILDWOOD NJ*   CLOUDY    61  55  82 S17G32    29.78F
HENDERSON NC   CLOUDY    63  60  91 S9        29.75R
GREENSBORO     MOCLDY    61  56  83 SW16G22   29.73R
ROCKY MOUNT    CLOUDY    67  66  97 S10       29.78S
$$

VAZ100-240900-
MARINE

STATION/POSITION TIME  TEMP    WIND        PRES    WAVE   SWELL
                       AIR SEA DIR/SP/G            HT/PER HT/PER
                 (UTC) (F)     (DEG/KT/KT) (MB)    (FT/S) (FT/S)
CAPE MAY NJ      0800   58 47  140/ 16/ 25 1008.5F
LEWES DE         0800   59 47  170/ 13/ 21 1008.3F
15NM E FENWICK I 0800   59 53              1009.5F   4/ 5
OCEAN-CITY-INLET 0800   57 49  180/ 15/ 20 1009.2F
WACHAPREAGUE VA  0800   59 47  200/ 12/ 18 1009.0F
THOMAS POINT MD  0800   54 48  180/ 24/ 27 1006.4S
GOOSES REEF MD   0800   53     180/ 23/ 27 1005.8F
COVE POINT MD    0800   55     190/ 20/ 23 1006.1S
SOLOMONS ISLAND  0800      49                N/A
BISHOPS HEAD MD  0800   52 44  160/ 20/ 26 1006.7F
PINEY POINT MD   0800          170/ 15/ 17   N/A
POTOMAC MD       0800   58     180/ 23/ 31 1005.4F
CAMBRIDGE MD     0800   63 43  160/ 16/ 25 1006.2R
LEWISETTA VA     0800   62 46  180/ 17/ 21 1005.6R
RAPPAHANNOCK LGT 0800          160/ 28/ 32 1008.6R
STINGRAY PT      0800   53     170/ 14/ 17 1008.8S
YORK RVR RNG VA  0800   56     190/ 14/ 16 1008.2S
YORKTOWN VA      0800   65 50  180/ 14/ 19 1008.0R
JAMESTOWN VA     0800   62     180/ 17/ 23   N/A
DOMINION TERM VA 0800   64     190/ 21/ 25 1008.2F
KIPTOPEKE VA     0800      54  170/ 17/ 22   N/A
CHES BAY BRIDGE  0800   65 51  160/ 23/ 28 1008.2R
CAPE HENRY VA    0800   65     170/ 17/ 28 1007.9R
CHESAPEAKE LGHT  0700   62     170/ 33/ 35 1009.2F
WILLOUBY STN VA  0800   65     200/ 19/ 22 1007.4R
S CRANEY ISL VA  0800          200/  9/ 12 1008.8R
CAPE HENRY BUOY  0800      55                N/A     7/ 8
1ST LANDING BUOY 0800   63     180/ 21/ 29 1008.9R
CAPE CHARLES BUO 0800      54                N/A     7/ 8   2/12
64NM E OF VA BCH 0800   66 61  170/ 23/ 29 1010.7F  12/ 9   7/ 9
DUCK PIER NC     0800   65 56  170/ 29/ 36 1008.4F
44100 DUCK FRF   0800      58                N/A    10/ 8   2/11
44056 DUCK FRF   0800      58                N/A     6/ 8   2/11
OREGON INLET NC  0800   62 53  150/ 18/ 24 1010.2F
HATTERAS NC      0800   68 59  150/ 19/ 28 1010.4F
DIAMOND SHLS NC  0800   70     150/ 31/ 41 1008.8F  12/ 9   2/11
CAPE LOOKOUT NC  0700   67     140/ 27/ 30 1009.7F
$$


USA.gov is the U.S. government's official web portal to all federal, state and local government web resources and services.